Theta_e
302 294 292 292 292 294 297 298 297 299 300 299 299 297 295 296 298 303 306 308 311 305 303 303 304 304 305 306 307 310 311 311 310 310 311 312 313 313 314 314 314 315 317 320 321 321 321 322 323 323 323 323 324 324 324 325 325 325 325 325 324 325 326 327 327 328 327 326 326 325 326 323 325 328 330 328 329 330 330 331 331 331 330 330 328 331
300 293 293 296 297 297 298 298 299 301 302 300 298 297 295 298 296 303 303 308 310 304 302 304 304 303 304 306 308 310 309 307 309 309 310 312 313 312 313 312 313 314 316 317 317 319 320 321 321 322 321 324 321 322 323 323 324 324 325 324 324 324 324 326 326 325 326 325 325 323 323 323 323 325 326 327 328 330 331 331 331 331 330 329 328 330
293 294 295 297 298 300 299 300 302 301 299 299 297 296 295 295 300 304 306 308 310 306 301 304 301 301 304 306 310 309 308 308 311 311 311 312 312 313 313 313 313 313 313 315 315 317 318 319 320 320 320 320 321 321 322 323 323 323 323 323 323 323 323 324 328 326 325 326 327 325 325 324 324 326 325 326 329 329 329 329 330 331 330 329 328 328
290 291 297 300 302 301 299 300 299 298 299 297 295 295 293 298 298 293 303 307 307 305 301 302 300 300 304 307 308 311 310 309 312 312 312 311 311 312 313 313 313 313 314 314 314 315 316 317 318 319 319 319 320 320 320 321 322 323 324 323 322 323 323 323 326 329 325 327 325 325 325 325 323 326 331 326 325 326 327 327 328 330 330 329 328 328
292 297 299 301 299 298 297 298 297 296 293 297 297 296 296 296 298 299 298 303 305 306 306 301 297 295 299 301 302 307 312 311 311 312 311 313 315 315 314 315 315 313 313 312 313 314 315 316 316 317 319 319 319 319 320 320 321 323 321 322 322 322 322 322 324 323 324 323 321 321 321 321 321 321 321 322 324 325 327 328 326 328 330 330 329 328
295 299 300 299 299 299 298 296 297 296 293 293 298 299 298 300 299 300 302 301 296 297 302 297 286 287 294 299 301 304 306 307 310 309 309 311 312 314 313 314 315 315 314 313 313 313 314 315 316 317 317 318 318 319 321 321 321 320 321 321 321 320 320 321 321 322 321 320 318 318 316 315 315 315 316 317 318 321 322 322 324 326 327 329 329 328
295 299 300 298 298 297 297 295 298 298 291 290 295 302 302 302 301 300 299 297 290 290 298 303 286 282 291 295 299 303 305 305 308 308 309 311 311 313 312 314 314 313 313 313 313 314 315 315 315 315 316 317 318 318 319 320 318 318 319 318 319 319 319 320 318 320 321 316 316 316 316 314 314 313 314 315 316 317 319 319 320 322 323 325 327 328
297 298 299 300 299 297 295 293 300 299 295 292 301 302 303 301 299 298 298 294 291 299 300 300 293 287 286 292 300 305 303 303 304 306 308 308 310 311 313 314 313 312 312 313 313 313 314 314 315 315 316 317 317 317 318 318 318 317 317 317 317 318 320 318 318 317 320 315 314 313 313 317 313 312 313 315 316 316 320 316 317 318 319 322 323 324
297 296 298 297 297 294 294 297 299 300 295 296 301 303 301 301 300 299 296 293 295 293 288 292 296 287 284 290 302 305 301 302 303 304 306 308 309 310 312 313 312 313 313 313 313 313 313 313 314 315 316 317 317 316 316 316 316 317 316 317 316 317 317 317 318 318 316 318 313 312 311 311 313 314 314 316 316 314 315 313 315 316 317 318 319 321
299 297 298 300 297 294 299 301 302 302 297 301 302 303 303 302 301 298 294 294 292 285 284 290 294 284 285 292 296 301 301 300 301 304 306 307 308 310 312 312 312 313 312 313 313 313 313 313 314 314 314 315 315 315 319 315 316 316 315 316 315 314 315 316 315 315 315 314 316 312 311 311 310 313 312 311 311 311 311 311 313 314 316 316 317 318
298 306 306 300 298 301 300 302 303 302 302 304 303 300 298 296 294 295 293 289 286 282 284 293 295 290 282 290 295 296 298 301 302 303 305 308 308 311 310 311 311 311 312 312 312 312 312 312 311 312 312 312 313 314 316 316 314 314 314 313 313 312 313 314 313 313 314 314 313 312 311 310 310 309 312 311 312 311 311 311 311 312 314 315 317 316
297 296 298 302 306 305 304 301 304 305 304 303 297 294 294 291 291 287 287 286 280 279 283 293 296 294 282 286 294 300 301 305 304 303 305 306 307 308 309 310 311 311 311 312 311 311 310 309 309 311 311 311 311 311 312 313 314 313 313 312 312 312 312 312 313 312 311 314 313 311 312 312 312 309 311 311 310 312 311 311 309 311 313 314 315 314
291 292 297 302 309 304 301 299 299 302 301 299 296 292 287 282 280 282 280 280 277 280 289 294 296 289 285 287 296 301 302 305 306 306 306 306 306 307 309 309 310 310 310 310 309 309 309 308 308 309 310 310 309 309 310 311 312 312 311 312 311 312 312 311 310 311 311 311 312 312 311 311 315 311 310 310 310 312 311 310 309 310 311 313 312 312
288 293 295 297 298 303 302 296 293 294 296 296 294 287 282 279 277 276 278 281 281 287 293 295 297 286 288 294 300 302 304 307 307 307 307 307 307 307 309 309 308 309 309 308 308 308 308 308 309 309 310 311 310 308 310 312 312 311 312 311 311 311 311 312 309 311 311 310 310 310 310 311 311 310 311 309 310 311 310 309 309 309 311 312 310 311
280 285 290 293 290 297 300 299 299 295 295 297 297 293 287 282 279 277 277 277 280 281 287 296 289 283 286 290 301 305 306 307 308 308 307 307 306 308 309 308 308 307 307 307 307 307 307 307 308 309 309 310 310 309 309 309 310 309 310 310 311 310 310 311 310 310 310 309 309 309 310 311 311 311 310 310 314 310 309 308 309 310 311 310 310 310
289 285 291 295 297 297 298 300 301 297 296 294 298 295 291 288 286 282 282 281 282 284 283 287 284 291 290 299 303 306 306 306 307 304 303 303 305 307 306 306 306 306 306 307 307 307 306 306 306 307 308 309 309 310 309 309 309 308 309 308 309 310 310 311 312 310 309 309 309 309 309 309 313 313 311 311 312 309 309 308 308 309 310 310 309 310
287 287 294 296 296 296 297 300 299 298 286 292 296 291 292 295 295 285 284 289 285 282 282 285 288 294 299 303 304 307 305 305 304 302 302 302 303 304 304 304 305 305 305 306 306 306 306 306 306 307 308 308 309 309 309 309 309 309 309 308 307 309 311 310 311 310 309 308 308 309 309 309 308 309 309 309 309 309 309 309 308 308 309 310 310 311
285 285 293 293 294 299 300 299 299 298 296 291 288 288 296 299 297 287 281 282 277 276 280 289 287 288 288 285 300 302 301 303 301 300 301 301 302 302 302 303 305 305 305 306 307 307 307 307 307 306 309 309 309 309 309 310 309 308 308 307 306 309 310 310 309 309 307 308 308 309 309 309 309 310 310 310 310 309 309 307 307 307 308 309 310 312
291 285 290 294 295 297 297 297 297 299 300 294 291 298 292 284 285 287 286 280 279 277 279 286 290 288 287 289 297 298 299 300 299 299 300 300 302 302 302 303 304 304 303 303 304 304 304 305 306 306 308 309 309 310 309 311 310 309 307 308 306 307 310 310 310 309 309 308 309 310 309 308 308 309 309 309 311 309 308 308 307 307 307 309 310 311
294 284 287 294 295 296 291 292 286 289 297 299 299 296 299 289 287 285 284 284 286 279 279 282 289 283 293 292 299 299 300 301 300 299 301 302 302 302 302 303 302 302 303 303 304 304 304 304 305 306 307 308 307 308 307 309 309 308 307 311 309 310 309 309 310 310 307 308 308 308 308 307 308 311 310 310 309 308 307 308 308 308 308 309 311 307
292 290 281 289 294 291 284 287 287 289 288 291 291 289 292 292 296 290 290 288 283 281 278 280 280 284 290 297 300 301 301 301 300 300 301 301 301 302 302 302 303 304 304 304 304 304 305 305 305 305 307 308 308 308 308 307 308 307 308 308 311 307 306 307 309 308 307 308 307 309 306 306 306 307 308 308 306 307 307 307 310 307 308 309 306 306
287 288 285 287 288 285 288 292 296 293 293 291 288 289 291 289 287 282 283 288 288 284 282 280 279 284 291 304 303 302 303 302 302 301 300 301 301 302 302 302 303 303 303 304 304 304 305 305 305 305 307 308 306 306 307 307 307 309 309 308 308 306 307 308 308 308 308 308 308 306 306 304 305 306 307 306 305 307 307 307 306 307 308 305 306 306
295 291 285 284 287 289 295 298 298 297 298 296 292 293 293 289 286 280 279 283 286 288 290 285 282 284 293 299 303 303 303 303 302 301 300 301 301 301 302 302 303 304 304 304 304 304 305 305 304 305 306 306 306 306 305 306 308 308 307 307 307 307 307 308 307 307 308 307 307 306 305 304 305 306 305 305 305 305 306 306 305 309 305 305 305 306
318 291 284 289 290 292 296 298 299 299 296 293 295 295 293 291 292 286 283 288 283 285 283 281 280 283 292 301 303 303 302 302 302 301 301 301 301 301 301 302 302 302 303 304 305 305 304 304 304 305 306 306 306 305 306 306 307 308 307 307 306 307 307 308 307 308 307 306 305 304 303 303 304 305 305 305 305 304 304 304 304 307 305 305 304 305
289 290 287 282 279 282 285 288 291 296 294 290 291 293 296 295 295 293 291 288 283 287 286 281 278 282 292 299 301 302 301 301 300 301 301 300 300 301 301 302 302 303 303 303 304 304 304 304 304 305 306 305 306 306 306 306 306 307 307 306 307 306 306 306 307 306 306 305 303 303 303 303 304 303 303 304 304 303 303 303 303 305 305 304 304 304
293 289 286 281 278 277 278 277 280 286 288 289 295 294 295 294 293 288 286 284 283 286 285 279 279 284 292 297 299 300 299 299 300 300 301 302 301 301 301 301 302 302 303 303 303 303 304 305 305 304 305 306 307 307 306 305 306 307 307 306 306 306 306 306 306 305 304 303 303 303 302 303 303 302 303 304 303 303 303 303 303 303 304 306 303 303
294 293 287 284 282 281 281 284 289 291 290 287 291 292 293 293 292 290 286 283 283 283 282 286 287 289 291 294 296 297 298 298 298 298 300 299 299 301 301 302 302 302 303 303 304 304 304 303 304 305 305 306 306 306 305 305 306 307 307 307 307 306 305 305 305 304 303 303 302 302 302 302 302 302 302 302 302 303 302 302 302 303 303 305 303 302
289 287 292 289 288 290 290 292 295 294 291 292 291 292 293 292 291 289 285 285 288 285 281 287 290 287 290 293 295 296 296 298 299 298 298 299 300 301 302 302 306 302 302 302 303 303 303 304 304 303 305 305 306 306 305 306 306 306 305 305 306 306 305 306 304 304 303 302 301 301 302 302 302 302 303 302 302 301 301 302 301 302 302 304 302 303
289 285 293 291 292 293 294 295 295 295 293 292 292 292 291 292 291 289 289 290 287 280 281 288 290 289 290 292 293 294 295 296 296 296 299 301 301 301 301 301 302 302 301 301 303 303 303 303 303 303 304 305 305 305 305 306 305 305 305 305 305 304 304 304 303 302 301 301 301 301 302 302 303 302 303 302 301 301 301 301 301 302 302 301 302 305
288 285 291 294 293 294 294 294 295 294 293 294 294 293 293 292 292 291 292 291 289 288 290 291 290 290 292 293 294 295 296 296 296 298 298 300 301 301 301 301 302 301 301 302 302 303 303 304 304 305 305 305 305 305 305 304 303 303 304 304 304 304 305 303 302 301 300 300 300 301 301 301 302 300 300 301 301 301 300 301 301 302 300 301 301 301
293 287 296 294 289 291 293 294 294 295 293 291 293 294 294 293 293 294 293 293 293 291 293 292 291 290 294 295 295 298 298 298 298 298 298 298 299 302 300 300 300 301 300 301 301 302 303 305 306 306 305 305 304 304 304 304 303 303 303 304 304 303 304 302 301 300 299 300 300 300 300 300 300 299 300 300 300 300 300 300 300 300 300 300 300 300
294 288 294 290 286 288 292 293 293 293 292 291 290 291 292 292 291 292 289 292 290 290 289 289 288 289 293 297 297 297 297 297 296 296 297 297 298 299 299 299 299 299 300 301 301 302 302 303 303 303 303 304 304 304 304 303 303 303 303 303 303 303 303 301 301 300 300 300 300 300 299 299 299 299 299 299 299 299 299 299 299 299 298 299 299 301
293 289 285 282 284 282 289 293 293 289 287 286 287 292 293 293 292 294 294 295 293 292 286 283 287 290 295 297 295 296 295 296 296 297 296 298 298 298 298 299 299 300 301 302 303 303 302 303 303 303 303 303 303 304 304 304 303 303 303 303 303 303 301 301 300 299 300 300 300 299 299 298 298 298 298 298 299 298 299 298 298 297 298 298 299 300
293 290 288 286 283 282 289 292 288 285 279 281 289 294 295 293 292 290 291 294 295 292 289 288 293 294 294 294 295 294 295 296 296 299 299 298 298 298 298 298 299 300 301 302 302 303 303 303 303 303 303 303 304 304 304 306 304 304 304 304 304 301 300 300 299 299 300 299 299 299 298 298 298 298 298 298 298 298 297 297 297 297 297 299 298 298
291 288 288 285 283 286 286 285 282 279 278 288 294 297 298 296 295 293 294 296 294 294 295 295 294 294 296 296 296 296 297 298 299 300 300 299 299 299 299 299 300 302 301 301 301 303 302 302 302 302 302 304 305 304 304 305 306 304 303 302 302 300 300 299 299 299 298 299 299 299 298 298 298 297 298 297 297 297 296 297 296 297 298 298 298 298
287 287 286 285 283 282 281 280 278 278 287 294 295 297 299 296 293 293 292 294 295 295 296 294 294 295 295 296 297 299 299 299 300 300 300 300 300 300 299 300 300 301 302 302 303 302 303 303 302 302 303 306 305 305 303 303 303 302 302 303 301 300 299 299 298 298 298 299 299 299 298 298 297 298 298 297 296 296 296 296 296 297 297 299 298 297
293 289 284 286 286 282 281 277 281 288 290 291 292 296 296 294 292 287 283 290 294 295 295 294 294 295 296 297 298 298 298 298 296 298 301 301 301 301 302 301 302 302 302 303 305 305 304 304 303 303 305 304 304 304 303 303 303 303 302 302 302 300 300 299 298 298 299 301 298 300 299 298 298 297 297 297 296 296 296 296 296 296 297 297 297 296
294 291 289 285 285 282 280 281 282 280 279 283 290 295 299 297 295 292 290 290 296 296 296 296 295 296 297 297 297 296 298 295 292 294 299 301 301 301 301 303 302 302 302 302 302 303 303 304 304 305 305 302 303 303 304 303 303 301 301 301 301 298 299 298 298 299 299 299 299 299 299 298 298 298 299 297 297 297 296 296 296 296 298 297 296 296
296 294 289 284 286 283 281 279 278 279 279 287 293 297 299 300 298 295 289 286 292 296 297 297 296 296 296 296 296 296 292 288 289 292 298 299 300 301 301 302 302 302 303 303 303 302 302 302 302 304 303 302 302 305 304 303 301 301 301 302 300 298 298 298 298 299 299 299 299 299 299 299 299 298 298 298 298 297 297 297 298 299 298 297 297 297
293 287 286 285 283 282 280 281 281 280 285 294 295 297 299 299 297 292 283 281 291 296 297 297 297 297 296 296 297 296 294 288 291 295 298 300 301 300 301 301 301 301 302 302 302 303 303 304 305 301 300 302 303 303 304 302 301 302 301 301 299 298 298 299 300 300 299 299 299 299 299 299 301 300 299 298 298 297 297 298 297 298 298 297 297 297
289 288 285 284 282 282 284 280 282 285 292 295 297 299 298 298 293 283 280 283 293 296 298 297 297 297 297 296 294 292 294 295 298 300 299 302 301 301 301 302 303 303 303 302 303 305 303 302 302 302 301 301 301 301 302 302 301 301 302 300 299 299 300 301 301 301 300 300 299 299 299 299 299 300 300 299 299 298 299 299 298 298 297 297 298 296
288 287 285 284 287 286 281 282 282 283 290 299 299 300 300 296 285 280 287 293 298 298 299 298 298 296 297 297 294 294 296 297 300 301 301 301 301 301 301 302 302 302 303 304 306 304 302 302 301 301 302 302 303 303 301 301 300 301 299 299 299 300 302 301 301 301 300 300 300 300 299 299 299 300 301 300 299 297 298 298 299 299 299 297 296 296
287 286 284 285 283 284 278 279 283 283 292 301 298 297 296 289 286 289 296 302 301 299 298 300 298 298 298 297 297 298 299 301 301 301 300 299 299 300 301 301 301 301 302 301 302 303 304 301 302 302 300 302 301 302 301 300 299 299 300 299 300 302 302 302 302 301 301 301 300 301 301 300 299 300 302 301 301 298 298 298 298 298 299 297 297 296
292 286 284 284 286 283 283 283 283 286 292 301 297 289 293 294 296 298 298 296 299 300 299 300 300 300 299 299 299 298 298 299 299 299 299 299 300 301 301 301 301 301 301 302 303 304 303 302 302 301 300 301 301 302 302 301 301 300 300 301 303 302 302 302 302 302 301 301 301 301 301 301 301 300 300 300 300 299 298 298 299 298 298 297 297 296
291 291 286 288 291 287 285 284 290 293 296 301 299 296 298 300 301 302 299 298 297 299 300 301 301 300 300 299 297 297 297 298 299 299 300 300 299 299 300 300 300 301 301 302 302 303 303 303 301 300 300 301 300 301 302 301 301 300 300 301 303 302 302 303 302 301 301 301 301 300 301 301 300 300 300 300 298 298 299 298 298 297 298 297 296 295
298 299 294 292 294 295 295 296 298 300 300 301 302 301 301 302 305 302 301 299 300 301 300 301 301 301 300 299 299 300 299 299 297 298 298 298 300 300 301 301 301 300 300 300 300 301 302 300 299 299 300 301 301 301 302 302 301 301 301 301 302 302 301 301 301 301 301 300 300 300 300 299 299 299 299 299 299 299 299 299 299 298 298 296 295 295
300 300 296 292 295 289 288 292 298 299 300 301 302 304 303 303 303 301 300 300 301 302 302 303 303 302 302 300 299 298 299 299 298 300 300 300 301 302 301 299 299 301 301 301 301 301 300 300 301 300 300 300 301 300 301 301 302 302 303 303 303 302 301 300 299 299 298 298 298 298 298 298 298 299 300 299 298 299 300 299 298 298 297 295 295 295
293 299 294 295 293 289 290 298 300 300 300 302 300 300 301 303 305 304 302 302 303 303 304 303 301 301 301 300 299 300 300 299 299 299 299 300 301 301 301 301 301 301 300 300 301 300 301 300 299 300 300 302 302 300 301 301 301 302 301 302 302 301 300 300 299 298 297 298 297 298 298 298 299 300 298 297 296 297 298 298 299 297 297 297 297 296
295 297 290 294 293 291 295 297 299 299 300 301 302 301 300 301 302 302 303 304 303 304 303 303 301 302 300 302 300 301 301 300 300 300 301 301 301 302 302 302 301 301 302 302 302 301 302 300 301 301 300 302 301 300 301 301 301 301 301 300 300 299 299 299 297 297 297 297 297 297 298 298 298 297 297 296 297 298 297 298 299 298 297 298 296 296
296 293 296 292 288 287 290 295 299 291 291 299 302 303 303 303 301 302 302 302 302 302 303 302 303 302 300 300 301 302 301 300 300 302 302 301 301 301 301 301 302 302 303 303 303 301 302 302 301 301 301 301 300 301 301 300 300 300 300 299 299 298 298 298 297 296 296 297 297 297 296 297 296 297 298 297 298 298 298 297 297 297 297 297 299 296
296 295 291 285 285 286 293 297 299 296 298 299 301 302 303 303 301 301 302 302 304 303 301 302 300 301 302 301 302 303 302 302 301 301 301 301 301 301 301 300 300 300 300 300 299 299 299 299 302 301 300 300 300 300 300 299 298 298 299 299 298 297 296 296 297 297 296 297 296 295 296 295 296 298 298 298 296 296 295 296 297 295 296 295 296 294
Wind_Speed
2 5 0 2 4 3 2 1 2 4 11 11 9 9 8 10 6 4 6 7 6 7 7 5 7 6 6 4 3 2 3 4 6 8 6 4 2 2 3 3 3 3 3 3 5 6 8 9 8 7 7 7 7 6 7 6 6 6 6 7 8 7 6 6 6 5 5 5 5 5 6 4 5 5 5 6 6 6 5 6 6 6 7 7 7 6
6 4 4 6 5 4 3 4 9 10 12 14 11 11 7 8 7 3 7 8 5 1 4 2 5 6 5 3 3 3 6 5 5 4 3 3 3 2 4 4 5 4 3 7 7 7 8 8 8 7 6 6 9 7 6 7 7 7 8 7 7 7 7 6 5 4 3 3 2 2 3 2 3 5 6 6 7 6 6 6 6 6 6 7 7 7
2 1 5 7 3 5 8 9 13 14 11 8 11 9 11 6 8 9 4 1 1 5 5 1 5 5 5 4 3 4 2 2 2 1 3 7 7 3 1 6 6 8 7 7 7 7 8 8 8 7 6 6 6 6 7 7 7 7 6 6 5 6 6 6 6 6 5 4 4 3 2 2 2 2 2 3 4 5 6 6 5 5 5 6 6 6
2 2 6 1 12 11 6 9 12 9 9 10 9 10 8 10 11 1 1 0 1 3 7 3 7 2 2 2 3 2 2 1 3 4 7 7 3 4 2 2 7 6 7 7 6 6 6 6 6 6 6 5 5 6 6 5 5 5 6 5 6 6 6 7 7 6 6 5 5 5 5 2 1 2 4 4 4 5 6 7 7 6 6 5 5 5
2 2 2 10 9 8 7 7 10 9 6 2 9 11 11 8 5 13 5 4 11 8 7 8 6 2 4 3 2 2 2 3 2 3 4 2 3 3 1 2 5 7 7 6 5 5 5 7 6 6 5 5 6 5 5 4 4 4 5 6 5 6 5 6 6 7 6 6 7 6 6 5 5 5 6 6 7 7 6 6 7 7 6 5 5 4
9 6 5 10 7 7 8 5 8 11 7 2 1 8 10 14 11 9 12 12 3 2 7 5 4 3 3 3 1 2 3 2 1 2 2 0 1 0 3 1 3 5 5 8 6 5 4 6 7 8 7 7 6 6 5 5 5 6 6 6 6 6 6 6 5 5 5 5 5 6 7 8 6 7 7 8 7 7 7 6 5 6 6 5 4 5
2 4 8 9 10 7 5 4 1 4 7 6 1 10 17 16 16 14 10 7 4 7 10 2 4 2 3 3 0 0 2 2 1 0 2 0 2 2 3 3 3 6 5 4 4 5 7 6 7 6 7 6 7 5 5 6 6 6 5 5 5 5 4 4 5 5 5 6 5 5 5 4 5 5 4 3 4 4 5 5 6 6 6 6 6 5
1 6 9 9 9 6 5 5 0 7 9 5 5 14 15 16 14 11 9 5 4 2 3 3 3 5 1 4 1 2 0 1 1 3 3 3 3 3 4 3 3 5 5 5 5 4 4 5 6 6 6 7 6 5 6 5 4 5 4 4 4 4 3 4 4 5 4 5 4 5 5 4 4 4 3 4 4 4 4 6 6 5 5 6 6 6
2 3 9 9 7 5 4 2 3 4 7 5 4 13 14 13 9 7 5 4 2 6 0 2 1 5 0 3 2 3 1 3 5 5 5 5 4 3 3 2 6 6 6 7 5 5 5 5 4 4 5 5 6 6 6 4 3 4 4 4 4 4 4 4 4 4 4 3 4 4 4 5 3 2 4 4 3 4 5 6 7 6 6 5 5 5
1 3 5 9 7 5 4 6 9 10 7 1 6 7 7 7 4 8 4 5 2 4 4 4 1 4 0 1 2 1 3 5 6 7 7 7 6 4 3 5 7 6 6 6 6 5 4 4 4 4 5 6 4 4 4 4 4 4 4 5 5 5 4 4 4 3 4 4 4 5 4 5 6 5 5 3 5 4 4 5 6 6 7 6 6 5
2 1 8 5 5 5 4 3 5 6 6 6 9 8 5 5 3 2 5 4 5 1 5 5 4 5 2 5 7 9 7 8 6 4 5 7 5 6 5 8 8 7 7 6 6 5 4 4 5 6 7 5 5 4 4 4 3 3 4 4 5 4 3 3 4 4 4 4 4 4 5 5 5 5 5 6 7 5 6 6 6 7 7 6 6 6
3 4 3 1 6 4 4 6 4 9 9 8 4 5 7 4 6 5 3 4 2 1 5 3 5 3 1 2 6 7 3 8 9 8 10 9 7 9 9 9 8 8 8 7 6 5 4 4 4 6 6 6 6 5 4 4 3 3 3 4 4 3 2 3 3 4 5 4 5 5 5 6 5 5 5 6 6 5 5 5 6 6 6 6 6 6
4 3 2 5 4 10 5 9 4 3 3 6 7 7 8 0 3 0 3 1 1 3 1 5 7 2 0 5 8 10 6 8 8 8 10 8 7 12 13 11 9 8 8 8 6 5 5 5 5 5 5 5 6 6 5 4 3 3 3 4 4 0 0 1 2 5 5 5 5 5 5 5 5 6 5 5 5 4 5 5 6 6 6 6 6 6
2 4 2 0 2 1 9 9 3 1 0 7 7 6 6 2 1 1 1 1 1 3 3 5 2 1 3 2 4 9 8 10 10 8 5 6 8 14 13 11 9 8 8 8 7 6 6 6 5 5 5 6 5 6 6 5 5 4 4 4 4 1 2 0 4 5 5 4 4 4 4 3 3 4 4 4 3 5 5 5 5 5 5 6 6 6
2 4 5 2 1 3 4 7 13 8 8 7 4 6 6 6 4 2 3 3 6 5 2 2 2 2 1 1 3 9 8 8 8 7 4 3 7 10 12 12 11 8 6 6 6 6 6 6 6 5 5 5 5 7 6 5 5 4 4 4 4 1 1 2 4 4 4 4 4 4 4 4 3 3 2 2 2 3 4 4 4 6 6 6 6 6
2 2 5 3 2 2 4 2 5 5 3 3 3 4 4 4 6 3 5 5 2 3 2 3 1 0 1 3 2 1 4 4 4 4 8 9 12 15 12 11 9 7 8 6 6 5 5 6 6 5 4 5 5 5 5 5 4 4 4 4 5 4 2 1 4 4 4 3 2 2 2 2 3 3 2 2 2 3 3 4 4 5 5 6 6 7
3 2 2 4 5 2 2 1 1 4 1 4 4 2 6 5 10 5 2 2 4 6 1 0 1 2 2 6 6 1 0 5 6 7 11 11 12 13 11 10 9 8 7 6 7 7 7 5 5 7 7 6 5 5 5 5 5 6 5 4 4 3 2 2 3 4 3 3 2 1 0 1 3 3 3 2 3 3 4 4 4 4 5 4 5 6
5 2 3 2 4 1 2 2 2 2 3 5 2 5 0 3 5 7 4 1 2 4 2 1 4 2 2 2 2 4 3 6 6 7 9 10 11 11 10 10 11 10 9 9 9 8 8 7 6 6 8 7 7 6 5 5 6 5 5 4 4 3 4 2 3 3 3 2 1 1 0 0 0 0 1 1 2 3 3 4 4 4 6 5 5 4
5 4 2 2 1 4 7 6 8 5 5 4 2 2 3 1 1 4 5 2 1 0 0 1 1 1 5 3 5 7 8 7 6 6 9 7 7 10 11 12 9 8 7 7 7 7 6 7 7 7 9 7 6 5 7 7 7 5 3 4 4 4 4 5 4 3 2 3 2 2 2 1 0 1 1 2 2 1 3 4 5 4 4 5 5 6
3 3 3 5 1 0 4 5 2 6 6 1 2 5 1 4 2 1 2 3 7 3 3 1 0 2 5 5 11 10 10 9 6 6 9 10 11 11 11 11 10 10 9 9 8 7 8 7 7 8 8 8 7 5 6 7 5 5 4 4 4 2 4 4 4 4 4 3 3 3 2 2 1 0 1 1 3 4 3 3 4 4 5 6 5 4
0 2 2 4 5 3 2 2 1 1 3 6 8 4 6 2 1 2 1 1 5 5 3 4 0 5 5 6 11 12 10 9 8 8 5 11 10 10 12 12 11 11 11 10 8 8 7 7 5 5 9 8 7 6 4 6 6 5 4 4 4 5 5 5 5 4 4 4 4 2 0 2 3 2 3 3 4 4 4 4 3 3 3 3 5 4
2 3 4 2 6 4 1 2 1 4 4 2 3 1 2 3 3 2 1 4 3 6 6 5 3 4 7 2 10 10 8 7 9 7 9 10 8 8 10 11 12 10 9 9 9 8 8 7 6 2 8 8 6 4 5 2 4 6 5 5 4 3 5 6 5 5 4 4 3 1 1 4 3 2 2 4 4 4 4 4 4 3 3 4 5 4
3 3 7 5 2 3 1 4 2 3 7 5 5 2 2 3 6 4 3 2 4 3 5 4 6 3 4 2 5 8 5 6 7 11 11 10 10 9 10 11 10 12 11 10 9 8 8 7 6 7 10 10 8 7 6 4 6 7 6 4 3 5 5 6 6 5 4 4 2 1 3 3 4 3 4 4 4 4 4 4 4 4 4 4 4 4
5 3 4 2 3 4 4 4 7 7 4 7 5 2 4 3 0 5 4 2 5 3 3 1 3 2 3 1 5 5 4 6 9 12 13 10 9 10 8 7 8 7 7 7 8 8 8 7 6 7 9 8 7 6 5 5 6 6 4 4 5 5 5 4 4 4 4 2 2 3 3 3 2 4 4 4 3 4 4 4 4 4 4 4 4 5
2 2 7 2 3 4 6 4 8 7 5 2 1 3 1 2 4 3 5 2 6 3 3 6 2 1 2 1 4 7 8 9 9 9 13 11 8 8 8 8 8 7 7 7 9 8 5 5 6 6 9 8 7 5 4 4 5 5 5 4 5 4 4 4 3 3 2 2 5 4 3 2 3 4 4 4 3 4 3 4 4 4 3 4 4 4
6 2 3 4 4 2 0 1 2 2 1 3 1 3 5 6 2 2 4 4 6 1 4 2 2 2 3 2 7 7 7 7 10 11 8 12 11 9 8 8 7 8 10 10 7 5 8 9 6 5 7 7 7 6 5 5 6 6 4 4 5 4 3 3 2 1 3 4 5 3 3 2 4 4 3 2 3 2 2 3 3 3 3 3 4 4
2 2 3 5 6 7 4 5 4 2 1 4 1 3 5 5 6 8 5 6 4 1 4 1 6 3 4 2 3 3 4 9 7 4 6 5 6 8 9 9 10 10 11 10 8 9 8 5 6 6 6 7 6 5 6 5 5 4 4 4 4 4 2 1 1 2 5 4 4 3 3 3 2 1 2 2 1 1 3 3 3 3 4 4 4 4
4 4 1 7 3 6 5 3 2 4 4 3 3 2 4 5 4 5 6 5 5 8 4 2 3 3 1 1 1 2 0 1 1 3 3 3 6 10 10 9 10 7 6 6 6 7 9 8 6 5 6 6 6 6 4 4 4 4 5 5 4 3 1 2 5 5 5 4 4 3 2 1 1 1 1 1 1 2 3 3 3 3 4 4 5 4
3 3 2 3 1 1 4 1 0 2 2 3 4 5 5 4 6 6 2 3 4 4 7 3 5 6 3 4 5 5 5 5 5 4 7 5 2 4 6 8 8 8 6 6 10 6 5 5 3 1 3 5 5 5 4 3 4 4 3 3 3 1 3 4 6 5 4 4 4 2 1 1 1 1 1 1 1 2 2 1 1 2 3 4 4 4
5 0 1 1 1 0 1 0 1 2 0 2 1 3 6 7 5 5 3 3 7 5 6 7 5 5 3 4 5 5 5 4 1 0 2 4 4 7 8 9 9 7 3 0 1 3 5 5 4 4 4 5 4 2 3 4 5 4 4 3 1 2 3 5 5 5 4 4 3 2 2 1 1 1 1 1 1 0 0 0 1 2 3 4 4 4
5 1 3 1 2 0 1 3 1 2 6 2 3 2 4 3 4 2 3 4 9 7 4 7 6 4 3 3 4 1 1 2 4 6 2 2 1 7 4 0 0 1 4 4 3 3 3 4 5 5 5 4 4 4 4 5 5 4 3 2 2 3 4 5 5 4 4 4 2 2 2 2 1 1 1 1 0 0 0 0 1 2 3 4 4 5
4 1 1 3 2 1 3 0 1 5 7 6 4 3 4 6 5 0 4 3 8 6 4 6 4 2 2 2 2 2 5 6 5 4 5 5 5 5 5 4 5 6 6 6 5 5 6 6 7 8 7 6 5 5 5 5 4 4 4 3 2 3 4 4 4 4 4 3 3 3 3 3 3 2 2 1 0 1 1 1 1 2 3 4 4 5
1 2 1 2 3 2 3 3 0 2 5 4 2 0 1 1 1 0 1 2 4 9 7 5 4 5 4 4 6 2 3 3 3 3 5 6 6 8 7 5 5 6 7 6 6 5 5 6 6 6 5 5 5 5 5 6 5 4 4 4 3 3 4 4 4 4 4 3 3 3 4 4 3 3 2 2 2 2 2 2 2 3 3 4 4 3
2 3 1 2 1 1 3 2 2 2 1 2 4 3 4 4 5 4 1 3 3 2 3 6 6 3 3 5 7 5 6 4 3 1 1 7 8 6 5 5 5 5 3 3 4 6 6 5 5 5 6 6 5 5 5 6 6 5 5 4 3 5 4 5 4 4 4 4 4 4 4 4 4 3 3 3 3 2 2 2 3 4 3 4 4 4
2 2 0 1 1 1 2 4 4 1 3 3 5 3 2 6 6 5 1 0 4 6 8 8 5 5 6 7 7 6 6 3 3 8 5 5 8 8 8 6 6 6 5 4 3 2 4 5 4 4 3 4 5 5 5 5 5 5 4 3 4 4 5 4 5 4 4 4 4 4 4 4 4 4 4 4 4 3 3 3 4 4 4 4 4 4
1 3 0 2 2 1 3 2 1 2 4 3 4 1 4 6 2 8 5 3 2 5 11 8 7 6 5 5 5 7 8 6 5 4 5 5 8 10 9 8 7 7 7 6 6 5 5 6 7 6 6 4 4 5 5 6 5 5 4 1 3 4 5 5 4 4 4 4 4 4 4 4 4 5 5 5 4 4 4 4 4 5 5 4 4 4
7 4 3 1 0 2 1 1 2 3 2 2 2 0 0 1 1 4 3 2 3 2 4 8 5 4 3 6 8 5 4 5 5 2 0 6 6 7 11 9 9 9 9 7 8 7 6 6 6 6 4 4 5 5 5 5 4 4 3 1 2 5 5 4 4 5 5 5 5 5 4 5 5 5 5 5 5 5 5 4 5 5 3 4 5 5
4 1 3 5 1 3 4 2 1 2 1 6 6 6 2 2 3 4 8 0 4 1 3 9 7 6 5 4 5 4 5 8 4 0 1 2 7 7 5 6 5 6 7 6 5 5 4 5 4 3 4 4 4 5 5 5 5 5 2 2 2 4 4 4 5 6 6 6 6 5 5 5 6 6 6 5 6 6 6 5 4 6 4 5 6 6
7 8 6 3 1 2 3 3 2 3 5 7 4 3 1 1 8 3 5 1 3 2 5 9 7 6 7 6 5 5 4 3 3 5 6 4 5 8 9 7 7 8 8 8 8 7 6 6 5 4 3 3 4 6 5 5 5 3 3 3 3 4 5 5 6 6 7 7 6 6 6 6 7 7 7 7 7 6 6 6 7 6 4 5 5 7
3 3 2 2 1 0 2 2 1 3 0 1 6 4 2 4 5 4 1 4 7 4 5 6 7 7 5 6 7 7 8 5 7 7 6 7 6 6 10 9 6 6 6 5 5 7 7 5 4 3 4 5 6 5 5 5 4 4 4 4 4 5 6 7 7 8 7 6 6 7 7 6 7 8 8 8 7 6 7 6 4 7 6 6 6 7
1 1 3 2 2 0 2 1 1 3 3 4 3 3 1 2 5 3 4 4 5 6 5 6 7 7 7 6 5 5 6 7 8 8 3 5 4 1 3 6 8 10 9 6 7 6 5 5 6 6 5 5 5 4 5 4 4 5 5 5 4 6 8 8 7 6 7 7 7 7 7 7 7 9 9 8 8 6 5 5 6 7 6 7 7 6
0 1 1 2 1 2 4 3 3 3 6 3 1 4 1 2 1 3 6 3 5 5 2 5 7 4 5 6 4 4 5 6 4 3 4 6 7 7 7 8 6 5 3 5 7 6 5 5 5 5 4 4 4 4 4 4 4 5 5 4 6 8 8 6 7 7 6 7 8 8 7 8 8 8 8 8 6 5 6 6 6 7 7 7 6 7
6 3 2 2 1 2 3 2 1 1 2 4 4 1 2 1 6 4 1 0 3 3 4 2 4 4 5 3 3 4 3 2 5 5 6 6 6 7 8 6 7 8 6 3 3 5 6 5 5 5 5 5 4 4 4 4 5 5 4 4 8 8 7 7 6 6 7 7 8 8 8 8 8 9 7 7 7 5 7 7 6 7 6 6 7 7
1 1 0 2 4 2 1 1 1 5 6 5 6 5 4 6 6 6 6 3 2 3 5 4 3 6 6 8 6 4 4 6 4 5 5 5 7 8 8 7 5 5 5 5 6 8 5 6 5 5 5 5 4 4 4 4 5 5 5 8 8 6 6 6 6 5 5 6 8 8 8 8 7 7 7 8 7 5 6 7 7 6 6 7 7 8
3 1 6 2 3 2 1 3 6 5 4 5 7 6 5 4 5 8 6 6 5 2 3 6 6 4 5 7 5 6 3 5 8 8 7 7 8 7 8 7 6 8 8 7 8 7 6 7 7 6 5 5 5 5 5 4 4 5 6 6 6 6 6 6 5 5 6 7 7 7 7 7 7 7 7 8 5 6 7 5 4 6 7 7 7 7
2 3 1 4 1 0 1 3 3 1 1 4 1 1 6 5 0 2 7 4 2 5 6 7 6 6 5 4 5 1 5 7 5 4 4 3 1 2 2 2 3 4 5 5 4 4 6 5 4 5 5 6 6 6 5 5 4 5 6 5 5 4 4 5 5 5 6 5 5 6 5 6 7 7 7 7 5 4 3 4 6 7 7 7 7 7
1 1 0 1 1 3 1 7 6 3 3 2 1 1 1 1 4 3 5 5 5 6 5 7 9 6 6 6 6 5 4 4 3 0 1 3 2 1 2 3 4 6 6 7 8 4 3 3 3 3 5 5 6 5 5 5 4 4 5 7 6 5 4 3 3 3 3 4 4 5 5 5 6 7 7 5 4 3 5 5 5 6 7 7 7 7
2 0 1 0 1 2 1 1 3 3 2 3 6 4 3 1 1 1 2 4 5 5 6 6 4 5 4 5 6 6 4 4 7 5 4 2 1 2 2 2 2 3 4 2 1 2 2 2 4 5 5 6 7 4 4 5 5 4 4 4 6 5 5 5 4 4 4 4 4 4 4 5 8 7 6 5 4 5 7 7 6 6 7 8 8 8
3 2 1 1 0 2 3 2 1 5 7 4 2 2 4 6 4 3 3 4 4 5 5 5 4 7 7 6 6 7 7 4 6 7 7 5 4 4 3 2 1 1 0 3 2 4 4 5 4 5 4 5 4 5 4 5 6 6 7 5 4 4 5 4 4 4 5 4 4 6 4 6 5 4 3 4 4 4 6 7 8 8 7 7 7 6
2 2 0 3 1 0 3 1 1 2 1 1 1 2 3 3 5 4 1 1 2 2 1 3 1 4 3 4 7 8 9 5 5 8 7 5 5 4 2 2 2 2 1 0 0 0 2 2 1 2 2 3 3 6 7 6 6 5 4 3 2 3 4 3 4 4 5 4 5 5 5 6 6 5 5 5 5 6 6 7 11 11 8 8 11 10
1 3 4 2 5 3 6 6 4 4 5 5 5 3 3 3 4 3 2 1 1 1 2 4 6 5 6 4 5 11 8 9 6 6 6 4 3 3 2 3 4 4 4 3 4 5 5 4 3 4 6 5 5 6 6 5 4 4 3 2 2 3 4 3 4 5 6 5 6 7 6 5 6 7 5 6 6 6 6 7 8 12 14 12 11 11
Wind_Direction
115 78 42 240 243 240 249 163 148 114 116 110 96 102 116 111 97 128 139 169 166 100 43 35 84 76 62 49 33 32 54 47 57 58 61 51 41 96 97 120 148 110 97 78 74 72 75 72 67 64 56 60 60 50 47 48 41 37 34 29 21 2 8 16 6 4 14 18 6 20 22 17 1 353 3 8 5 9 1 359 0 5 360 359 1 3
65 42 301 226 226 226 213 99 93 94 101 115 113 109 100 104 121 155 136 165 210 79 82 28 77 57 59 36 23 15 57 34 41 84 123 110 63 105 128 126 111 107 80 61 54 58 69 71 70 67 62 58 61 44 49 48 43 35 26 28 16 10 13 17 21 10 16 0 15 63 21 354 334 0 8 2 1 356 354 359 4 5 1 3 3 358
29 151 265 259 163 68 59 85 109 113 110 106 115 114 100 74 87 42 61 132 17 112 80 111 84 48 43 49 33 34 51 33 12 354 45 52 19 22 86 98 84 77 71 63 61 58 65 67 65 66 60 54 61 57 50 44 42 31 24 20 15 13 18 15 17 26 18 5 8 31 22 39 332 317 324 337 346 345 351 352 357 360 6 5 4 4
27 290 304 310 103 103 89 87 93 90 102 114 113 109 121 150 129 52 249 181 334 22 144 132 88 59 18 51 80 69 95 60 28 30 51 74 333 313 322 94 98 84 78 75 73 73 69 80 76 71 65 61 59 54 51 49 50 37 29 22 17 12 15 15 14 23 14 19 17 17 22 360 37 344 347 342 343 357 0 1 350 351 358 1 6 2
88 308 317 85 78 95 95 83 87 99 74 25 119 125 134 159 167 143 185 80 73 53 114 119 72 6 10 358 356 348 70 87 65 58 80 140 217 255 2 34 110 120 112 101 92 83 85 80 79 83 77 64 53 48 50 43 39 37 28 22 24 25 21 17 17 18 15 19 21 15 16 20 8 3 13 13 8 3 358 355 354 340 341 348 353 359
21 8 58 67 80 79 87 70 111 112 105 90 104 144 141 136 120 102 120 108 72 90 253 112 54 321 307 324 338 8 360 46 116 110 157 181 294 57 113 166 148 124 119 125 126 130 109 89 75 63 56 52 39 37 39 50 39 42 31 29 31 36 34 31 23 22 33 31 36 24 30 23 17 19 15 20 4 356 5 356 329 342 345 337 342 346
75 342 78 97 99 97 80 102 306 91 123 87 112 123 132 134 131 137 139 116 129 157 224 211 127 263 327 306 280 46 356 350 31 337 324 305 241 211 179 210 161 122 118 109 105 98 84 81 78 70 67 61 59 51 57 50 48 51 44 38 35 35 32 28 35 33 42 41 37 39 39 43 38 31 358 343 353 3 343 351 2 352 356 0 354 340
1 56 65 72 78 63 64 75 350 111 95 92 146 121 122 127 136 152 151 146 174 206 53 64 109 128 312 295 159 121 207 279 276 248 231 237 236 195 200 181 139 134 131 109 94 84 91 93 93 89 82 78 84 77 64 55 46 52 51 41 31 22 26 17 28 32 37 64 47 46 35 30 30 38 358 339 345 351 353 356 350 348 354 358 5 2
112 71 89 80 70 69 81 167 148 93 108 161 178 128 135 137 149 147 114 98 122 105 218 353 87 66 299 278 50 91 226 273 253 241 234 228 222 190 219 145 133 130 118 116 120 118 112 109 102 98 80 83 79 78 81 81 66 48 42 46 30 28 25 10 14 27 17 47 74 69 60 33 355 357 338 327 339 352 354 7 347 352 342 350 353 4
116 139 132 120 116 112 142 121 110 111 93 157 127 103 117 118 110 122 106 91 32 68 204 244 177 109 345 269 117 246 243 233 237 234 237 227 207 180 190 134 135 127 116 120 129 131 130 126 114 113 100 76 79 69 69 62 66 49 46 47 41 22 18 6 10 22 20 21 35 43 35 38 10 1 343 352 344 344 348 10 355 348 345 341 346 348
118 253 131 105 140 157 152 118 123 106 117 124 93 98 58 42 50 48 74 98 63 47 248 222 177 121 179 235 191 172 208 197 202 222 230 223 162 186 136 148 141 135 132 135 136 137 136 137 131 109 102 102 75 67 63 44 40 61 57 60 49 11 14 4 5 23 17 15 18 31 35 34 20 7 8 2 354 347 358 360 356 358 341 340 338 340
17 353 44 78 122 108 114 81 50 121 126 120 105 113 88 26 14 25 349 42 94 274 261 200 185 178 121 251 226 221 235 180 178 190 207 206 154 167 143 150 146 139 143 143 136 138 136 122 117 119 116 110 103 84 69 59 55 65 78 77 60 12 355 6 359 25 20 22 14 16 17 19 6 14 12 13 3 355 353 352 348 354 359 347 334 344
10 11 21 119 138 122 104 94 42 57 41 73 90 61 102 153 34 358 12 18 131 159 247 172 149 41 14 221 195 191 204 177 184 200 200 191 138 146 147 149 148 148 147 141 142 149 153 149 144 130 135 116 108 105 104 110 118 130 117 118 111 67 295 6 25 35 31 33 28 22 19 13 360 2 10 12 6 357 356 351 351 357 356 338 347 341
285 282 71 247 75 76 125 117 144 126 281 121 143 137 86 105 62 152 269 258 334 293 246 126 97 98 252 309 179 169 191 175 191 207 201 175 142 146 147 148 151 155 144 144 156 163 163 163 158 156 148 140 137 128 129 147 151 159 147 147 133 213 251 30 61 54 49 33 37 36 26 358 358 353 7 351 1 344 354 355 344 343 340 335 333 331
66 358 318 62 6 199 148 157 175 178 176 197 158 143 168 148 156 176 189 163 185 187 254 322 64 245 72 255 209 168 173 176 190 201 192 145 121 143 146 146 154 145 138 157 162 164 163 165 164 170 158 152 155 151 156 161 174 169 154 154 152 183 283 38 71 83 76 53 39 33 19 354 330 343 2 327 328 339 349 340 344 336 332 331 319 324
156 191 252 220 211 129 140 225 143 97 98 253 165 90 66 235 144 116 207 138 164 111 32 8 121 208 169 258 6 81 135 172 121 83 107 125 136 143 149 150 148 149 158 164 163 168 180 172 165 156 156 161 173 175 169 175 178 175 179 172 175 175 193 66 86 97 101 88 69 40 30 337 333 341 355 337 326 309 310 328 339 326 323 315 316 323
23 6 270 328 11 83 200 52 28 114 158 251 96 235 218 169 106 110 47 79 83 59 26 163 12 352 356 6 34 5 227 172 110 124 125 128 133 133 140 145 149 157 160 164 168 177 186 190 177 161 163 172 178 180 184 190 191 189 189 174 179 199 137 107 125 124 127 110 71 334 301 349 10 0 356 296 286 291 311 338 328 330 312 320 325 324
138 230 294 80 69 331 359 73 90 105 154 90 105 247 359 57 107 121 144 331 65 123 237 50 157 186 84 264 261 196 197 183 138 157 144 136 135 133 139 147 157 163 166 173 178 181 184 188 182 179 173 174 180 184 198 203 208 208 179 173 163 177 129 131 153 150 148 128 169 258 286 291 290 323 301 242 261 293 324 333 326 331 339 328 310 313
103 67 293 292 151 327 358 36 20 341 17 124 179 256 87 277 31 329 94 104 124 39 233 343 140 243 163 211 167 204 188 199 170 173 146 137 132 132 143 152 153 148 155 170 177 184 191 196 194 185 181 184 186 176 202 205 208 213 185 194 169 164 163 159 169 180 190 178 199 223 224 221 248 297 287 286 263 310 339 324 324 322 309 317 330 336
60 130 311 313 360 172 34 54 41 300 318 8 49 27 16 101 154 61 207 167 110 165 82 292 76 224 209 209 182 190 195 185 188 180 163 142 146 141 149 151 152 166 174 177 182 188 194 200 195 183 180 178 183 182 209 207 202 197 198 199 208 122 133 140 170 185 178 204 214 231 243 283 268 237 273 301 328 335 334 319 320 322 333 324 319 328
64 106 118 274 316 45 3 354 151 144 65 351 29 345 357 347 194 109 16 72 157 150 155 144 189 281 262 201 176 193 193 186 173 184 133 147 150 148 151 157 166 172 176 182 181 186 199 205 212 200 170 183 179 191 201 196 193 190 194 211 182 142 158 165 188 187 198 201 221 228 268 300 294 324 331 355 354 346 345 334 330 331 303 315 341 338
65 26 119 313 27 34 203 247 158 153 113 133 136 85 215 33 39 65 256 342 71 111 169 125 184 269 268 177 184 184 192 154 183 154 135 152 154 154 155 164 169 175 185 177 182 187 197 207 213 194 147 179 175 195 226 179 143 164 195 212 161 140 165 171 201 198 208 213 215 225 1 347 325 334 3 11 10 359 343 334 335 325 337 359 332 350
136 134 96 67 116 116 62 37 35 79 88 103 117 21 144 125 106 95 97 308 39 38 93 122 119 269 241 216 172 181 168 166 154 136 146 157 161 169 174 174 175 170 175 181 183 193 197 194 202 157 155 171 181 195 193 153 150 166 189 187 171 165 180 184 194 207 199 205 209 348 20 8 7 5 18 22 7 355 344 334 335 346 5 357 343 342
71 65 51 351 331 307 334 342 30 24 48 31 7 31 54 26 196 167 173 170 109 342 64 24 59 256 294 16 139 147 115 113 144 141 150 165 175 182 178 172 171 175 182 181 189 194 190 187 188 142 164 166 181 185 191 172 166 171 175 176 162 153 187 200 209 209 208 207 33 33 50 32 349 27 23 28 358 7 350 347 354 355 8 351 348 349
72 315 112 74 1 337 344 346 6 339 37 84 70 348 74 94 63 97 102 54 81 342 162 110 168 267 278 348 124 123 128 140 151 162 156 168 185 179 179 181 181 178 177 191 192 189 187 196 196 168 170 174 177 179 193 172 174 175 193 161 151 179 194 202 206 188 210 101 63 56 62 20 19 39 32 37 28 23 8 6 7 10 8 354 349 337
86 175 95 120 135 121 285 355 312 340 261 287 349 6 9 55 31 60 48 12 86 320 87 101 156 253 287 70 135 141 145 152 166 173 183 167 173 183 187 183 182 182 193 195 187 180 196 204 198 164 170 171 169 176 204 190 158 176 164 168 173 179 209 231 195 145 110 88 77 68 52 20 38 45 58 67 54 35 12 14 20 3 351 349 336 331
119 56 95 151 151 179 198 209 246 127 28 63 326 42 46 56 54 88 123 77 108 179 60 208 164 89 60 87 122 150 158 162 191 202 181 193 191 188 180 180 185 190 194 191 188 198 207 203 202 179 174 174 171 190 198 163 157 153 150 173 201 197 175 188 126 105 85 79 95 84 41 37 49 99 100 100 92 32 26 20 13 5 344 324 332 332
60 57 28 120 148 186 181 192 204 150 137 193 115 59 55 68 77 79 96 146 153 85 37 304 170 95 225 132 128 116 13 318 255 248 246 223 190 183 184 188 193 196 198 197 202 207 208 211 207 179 173 165 173 198 184 179 130 144 151 171 204 217 182 109 84 81 87 95 90 87 62 49 119 134 141 131 67 44 27 19 8 337 323 338 338 329
125 111 237 100 175 233 207 175 78 110 150 173 162 141 122 136 93 104 140 160 125 131 174 195 130 119 198 170 157 168 172 185 198 223 221 212 184 181 172 189 198 206 203 198 212 221 232 225 229 154 164 174 174 183 188 108 114 146 154 187 192 175 103 102 98 102 111 105 99 115 149 109 96 145 122 112 52 39 22 358 335 330 335 335 327 317
85 52 233 121 102 19 272 297 100 107 46 110 114 148 150 124 132 122 128 168 127 146 158 158 139 145 201 210 199 207 203 163 177 40 50 118 170 194 189 194 199 206 215 232 136 170 182 194 174 156 166 179 169 149 105 123 152 159 168 187 182 108 107 104 110 119 125 116 132 149 139 135 141 146 168 91 69 351 266 297 310 331 327 321 311 308
105 268 189 95 76 327 322 333 11 84 96 68 11 105 103 107 91 73 103 92 76 58 97 120 120 171 251 191 203 305 45 141 83 57 76 24 147 186 189 167 17 119 133 140 89 68 91 122 135 135 131 132 142 152 136 153 167 182 180 187 181 117 134 121 129 133 133 142 169 154 154 158 162 166 134 219 228 265 276 276 286 317 316 311 310 306
71 248 39 61 96 307 297 172 278 81 79 81 36 46 98 91 89 192 105 197 116 153 149 105 100 178 267 98 77 68 84 79 99 81 54 43 67 88 99 103 93 99 105 109 113 94 100 112 117 119 123 130 135 143 152 165 180 167 190 213 187 148 149 128 138 138 144 164 169 161 165 175 172 162 201 215 234 243 245 250 294 314 301 300 311 304
118 108 59 63 84 257 271 215 24 17 43 20 331 231 185 101 144 138 15 72 155 146 125 125 193 217 177 153 98 25 82 70 70 111 95 70 60 80 92 96 109 127 131 141 141 139 117 122 127 127 135 140 153 158 180 168 164 182 194 197 188 152 126 135 143 147 155 180 166 172 181 184 173 189 207 225 230 237 228 244 289 294 297 291 279 290
59 98 122 151 113 240 313 61 54 53 63 237 229 186 164 157 153 109 117 147 207 137 189 175 170 185 126 113 119 142 100 128 157 354 153 128 107 89 76 86 106 126 126 111 124 131 129 124 139 152 162 169 177 177 181 174 166 187 197 181 170 138 148 140 161 152 169 185 185 190 193 187 182 197 219 232 239 231 234 244 264 262 257 263 288 294
86 72 87 131 88 31 19 37 51 261 234 245 290 289 174 139 120 131 81 345 114 91 96 94 107 143 158 149 143 133 130 139 98 105 104 115 112 112 110 102 104 110 109 105 97 121 151 151 154 167 173 176 173 171 142 164 176 190 208 185 135 148 148 158 165 181 183 184 205 211 205 197 196 210 230 233 235 236 244 246 259 271 268 261 265 271
127 89 170 29 110 36 39 37 103 246 238 290 301 16 140 98 110 74 37 12 330 150 134 140 166 164 166 132 119 141 131 134 96 88 124 142 130 127 117 116 125 127 135 159 148 156 154 164 168 169 180 187 165 182 169 177 192 172 200 165 136 159 172 178 170 190 207 213 221 219 216 200 211 222 229 235 237 238 252 260 251 258 266 260 267 270
133 102 91 71 40 132 157 121 200 296 335 329 358 17 128 214 158 140 140 279 259 249 150 148 172 186 160 128 137 135 133 84 73 50 321 144 137 132 131 139 133 131 139 157 156 170 192 193 187 194 190 193 187 178 200 200 192 175 203 191 154 172 186 168 179 207 215 219 224 227 222 210 213 223 230 231 234 243 250 254 270 267 246 256 267 268
122 109 225 104 302 113 116 49 12 21 270 270 238 280 297 192 138 156 105 305 299 303 179 127 155 173 140 116 134 135 82 72 68 335 273 176 134 131 123 136 140 139 143 149 150 154 176 198 206 223 196 204 211 216 207 201 183 190 197 245 196 178 196 192 209 219 217 223 225 225 226 216 214 224 235 232 231 237 242 245 254 255 242 237 261 269
40 79 113 115 153 38 51 119 197 165 242 213 232 238 260 165 123 121 67 305 265 234 205 134 155 166 152 134 142 113 69 102 222 238 243 206 163 144 143 156 157 157 159 159 156 162 166 176 173 181 174 169 212 230 213 202 191 171 213 233 212 201 207 219 230 223 225 230 227 226 224 218 218 224 231 235 239 227 233 239 243 249 249 247 246 255
35 358 35 24 27 112 135 96 262 199 196 269 231 259 246 150 82 61 32 266 247 237 207 137 149 158 164 149 135 118 130 150 211 235 225 198 190 172 145 159 163 174 183 182 173 167 178 170 136 119 150 177 210 218 205 206 175 195 216 234 212 214 230 235 227 225 225 230 232 232 229 222 220 227 230 237 243 235 230 237 247 255 250 256 250 258
332 327 58 195 176 86 94 305 332 312 270 245 238 249 225 114 76 92 198 241 231 205 218 158 167 168 154 146 147 138 220 182 193 206 182 179 198 216 189 170 176 176 180 184 186 183 164 182 167 169 180 197 210 214 212 189 187 218 227 231 214 232 237 238 234 230 228 231 239 242 239 233 225 232 239 236 235 230 238 236 241 253 257 257 264 263
343 97 326 84 125 222 187 132 217 239 240 186 255 194 193 60 272 216 234 215 152 210 222 170 167 186 146 157 173 171 197 225 203 178 165 175 181 187 179 183 190 214 221 192 179 171 181 186 193 191 212 235 212 211 181 171 193 226 238 232 238 243 244 244 237 231 233 238 241 247 248 244 244 240 243 248 238 236 248 252 247 250 253 258 260 268
198 131 219 194 226 67 48 76 16 116 271 164 172 24 48 118 234 205 173 267 189 189 147 210 163 190 147 163 214 167 133 166 163 175 193 186 178 179 193 192 195 197 200 198 230 228 175 189 203 208 214 225 226 216 195 172 210 239 243 238 247 249 249 245 238 235 237 245 252 255 256 256 253 253 248 252 242 226 244 254 260 261 263 265 270 269
184 84 250 273 175 157 91 150 195 211 218 197 137 181 226 200 183 164 132 131 226 152 163 144 203 186 178 142 173 177 180 169 190 192 193 197 191 195 197 202 201 201 207 207 200 200 191 192 206 221 242 242 241 235 218 187 233 254 259 256 257 260 261 259 254 250 257 259 261 265 269 268 271 273 271 264 259 241 248 261 261 275 279 279 275 277
238 144 179 139 229 125 196 215 246 239 204 204 176 202 203 220 166 170 146 158 146 217 187 143 180 195 183 159 164 151 165 199 183 187 172 202 206 202 205 211 208 199 204 204 220 211 189 193 206 224 245 251 257 259 251 220 217 252 257 255 258 262 257 260 268 282 286 294 304 312 314 321 308 294 285 279 273 263 261 273 298 300 284 284 284 279
250 192 179 86 219 332 227 215 249 263 197 228 164 219 173 192 279 152 130 116 183 157 158 152 181 186 202 173 131 215 180 196 191 198 230 245 275 269 235 219 234 246 240 236 242 212 202 203 214 209 224 258 257 262 261 252 202 233 241 251 276 304 331 337 340 334 323 320 319 309 306 311 311 305 293 284 281 286 303 287 282 281 287 289 285 282
292 74 84 98 284 69 247 328 356 293 306 40 67 27 22 158 183 183 132 155 169 158 162 163 164 174 172 168 162 175 211 170 167 261 156 139 169 198 187 202 217 207 209 217 227 193 198 204 209 227 232 247 267 267 279 279 253 259 326 346 344 341 345 5 8 356 346 339 324 327 334 333 317 312 310 317 325 293 271 277 278 286 293 289 283 281
313 225 59 213 89 109 203 320 311 304 290 199 159 133 150 151 142 180 194 165 171 180 158 181 156 157 156 168 161 144 147 137 117 120 102 106 96 35 16 348 300 286 285 279 348 178 161 173 207 230 231 246 268 293 309 332 354 21 50 34 26 30 44 49 43 40 16 356 344 332 326 324 319 328 330 318 309 313 317 304 295 288 281 286 288 293
196 57 264 222 128 295 326 316 336 26 35 5 26 117 170 156 132 122 120 158 171 151 177 178 182 176 176 177 145 120 115 141 121 120 100 79 67 64 51 25 4 22 290 127 156 151 181 203 217 237 238 267 302 339 14 54 63 54 50 39 30 30 48 32 16 16 360 340 338 329 330 328 324 319 314 309 318 306 290 288 298 290 279 270 255 255
67 231 219 61 30 332 178 222 131 87 272 281 296 212 193 198 132 138 135 110 124 147 151 160 78 41 49 109 122 116 120 126 128 120 122 134 140 150 125 78 43 100 133 18 338 354 350 2 297 305 328 334 21 63 71 63 54 43 35 27 14 35 45 15 359 355 333 321 319 321 338 332 319 322 332 328 317 311 305 281 274 272 273 288 297 291
187 219 131 151 156 222 240 235 200 155 168 216 198 233 238 204 121 136 192 200 295 269 196 118 74 77 77 79 127 124 129 131 144 123 120 132 144 145 132 104 66 31 352 352 42 34 50 49 68 81 67 48 58 74 78 72 54 44 19 23 16 42 31 11 356 332 323 323 327 330 331 312 314 337 332 324 314 310 306 314 315 309 305 288 275 271